This is the latest recevied weather packets stored in our database for station/object KD8UTJ. If no packets are shown the sender has not sent any weather packets the latest 10 day(s).
| Time | Temp. | Humidity | Pressure | Rain* | Wind** | Luminosity | Snow |
|---|---|---|---|---|---|---|---|
| 1778170712 | 30° C | 65% | 1017.6 hPa | 0 mm | - | 790 W/m² | - |
| 1778170408 | 29.44° C | 66% | 1017.5 hPa | 0 mm | - | 788 W/m² | - |
| 1778170105 | 29.44° C | 65% | 1017.8 hPa | 0 mm | - | 783 W/m² | - |
| 1778169801 | 29.44° C | 66% | 1017.8 hPa | 0 mm | - | 773 W/m² | - |
| 1778169497 | 29.44° C | 67% | 1017.9 hPa | 0 mm | - | 768 W/m² | - |
| 1778169193 | 30° C | 65% | 1018 hPa | 0 mm | - | 759 W/m² | - |
| 1778168890 | 28.89° C | 66% | 1018.1 hPa | 0 mm | - | 751 W/m² | - |
| 1778168588 | 28.89° C | 67% | 1018.2 hPa | 0 mm | - | 742 W/m² | - |
| 1778168284 | 28.89° C | 67% | 1018.4 hPa | 0 mm | - | 736 W/m² | - |
| 1778167981 | 28.33° C | 68% | 1018.3 hPa | 0 mm | - | 727 W/m² | - |
| 1778167677 | 28.89° C | 67% | 1018.1 hPa | 0 mm | - | 717 W/m² | - |
| 1778167373 | 28.33° C | 68% | 1018.3 hPa | 0 mm | - | 708 W/m² | - |
| 1778167069 | 28.33° C | 67% | 1018.4 hPa | 0 mm | - | 699 W/m² | - |
| 1778166766 | 28.33° C | 71% | 1018.3 hPa | 0 mm | - | 686 W/m² | - |
| 1778166463 | 27.78° C | 69% | 1018.1 hPa | 0 mm | - | 675 W/m² | - |
| 1778166160 | 27.78° C | 71% | 1018.2 hPa | 0 mm | - | 664 W/m² | - |
| 1778165856 | 27.78° C | 71% | 1018.3 hPa | 0 mm | - | 653 W/m² | - |
| 1778165552 | 27.78° C | 71% | 1018.3 hPa | 0 mm | - | 641 W/m² | - |
| 1778165250 | 27.22° C | 72% | 1018.4 hPa | 0 mm | - | 630 W/m² | - |
| 1778164947 | 27.22° C | 74% | 1018.5 hPa | 0 mm | - | 618 W/m² | - |
| 1778164643 | 27.22° C | 75% | 1018.4 hPa | 0 mm | - | 604 W/m² | - |
| 1778164341 | 27.22° C | 75% | 1018.3 hPa | 0 mm | - | 591 W/m² | - |
| 1778164036 | 27.22° C | 74% | 1018.5 hPa | 0 mm | - | 579 W/m² | - |
| 1778163733 | 26.67° C | 74% | 1018.3 hPa | 0 mm | - | 565 W/m² | - |
| 1778163429 | 26.67° C | 75% | 1018.4 hPa | 0 mm | - | 551 W/m² | - |
* Rain latest hour (hover to see other rain measurements)
** Current wind speed in m/s (hover to see current wind gust speed)